Weather History for Hulett, WY

Change the Weather History Date:

Thursday, October 3, 2013

  Actual Average (KEFC) Record (KEFC)
Temperature  
Mean Temperature 40 °F -  
Max Temperature 46 °F 69 °F 88 °F (1963)
Min Temperature 33 °F 39 °F 26 °F (1968)
Degree Days  
Heating Degree Days 26    
Moisture  
Dew Point 37 °F    
Average Humidity 85    
Maximum Humidity 100    
Minimum Humidity 66    
Precipitation  
Precipitation 0.00 in - - ()
Sea Level Pressure  
Sea Level Pressure 29.99 in    
Wind  
Wind Speed 10 mph (ENE)    
Max Wind Speed 20 mph    
Max Gust Speed 30 mph    
Visibility 8 miles    
Events Rain , Snow    
Averages and records for this station are not official NWS values.
T = Trace of Precipitation, MM = Missing Value Source: NWS Daily Summary

Daily Weather History Graph

Daily Weather History Graph

Search for Another Location

Airport:

Trip Planner

Search our weather history database for the weather conditions in past years. The results will help you decide how hot, cold, wet, or windy it might be!

Date:

Astronomy

Oct. 03, 2013 Rise Set
Actual Time 6:58 AM MDT 6:34 PM MDT
Civil Twilight 6:29 AM MDT 7:03 PM MDT
Nautical Twilight 5:56 AM MDT 7:37 PM MDT
Astronomical Twilight 5:21 AM MDT 8:11 PM MDT
Moon 5:32 AM MDT (10/3) 5:45 PM MDT (10/3)
Length of Visible Light 12h 33m
Length of Day
11h 35m
Waning Crescent, 2% of the Moon is Illuminated
Oct 3
Waning Crescent
Oct 4
New
Oct 11
First Quarter
Oct 18
Full
Oct 26
Last Quarter

Hourly Weather History & Observations

Time (MDT) Temp. Windchill Dew Point Humidity Pressure Visibility Wind Dir Wind Speed Gust Speed Precip Events Conditions
12:15 AM 44.6 °F 41.4 °F 37.4 °F 76% 30.01 in 10.0 mi NNE 5.8 mph - N/A Rain Light Rain
12:35 AM 44.6 °F 41.4 °F 37.4 °F 76% 29.99 in 10.0 mi NE 5.8 mph - N/A Rain Light Rain
12:55 AM 42.8 °F 38.0 °F 37.4 °F 81% 29.97 in 10.0 mi East 8.1 mph - N/A Rain Light Rain
1:15 AM 42.8 °F 37.5 °F 37.4 °F 81% 29.97 in 10.0 mi NE 9.2 mph - N/A   Overcast
1:35 AM 42.8 °F 38.0 °F 37.4 °F 81% 29.97 in 10.0 mi NE 8.1 mph - N/A   Overcast
1:55 AM 42.8 °F 36.6 °F 37.4 °F 81% 29.96 in 10.0 mi NE 11.5 mph 16.1 mph N/A   Overcast
2:15 AM 42.8 °F 38.0 °F 37.4 °F 81% 29.96 in 10.0 mi ENE 8.1 mph 17.3 mph N/A   Overcast
2:35 AM 42.8 °F 37.5 °F 37.4 °F 81% 29.96 in 10.0 mi NE 9.2 mph - N/A   Overcast
2:55 AM 42.8 °F 37.5 °F 37.4 °F 81% 29.98 in 10.0 mi NNE 9.2 mph - N/A   Overcast
3:15 AM 42.8 °F 38.0 °F 39.2 °F 87% 29.99 in 10.0 mi NNE 8.1 mph - N/A   Overcast
3:35 AM 41.0 °F 35.8 °F 39.2 °F 93% 30.00 in 10.0 mi NNE 8.1 mph - N/A Rain Light Rain
3:55 AM 41.0 °F 36.4 °F 39.2 °F 93% 30.00 in 7.0 mi NNE 6.9 mph - N/A Rain Light Rain
4:15 AM 41.0 °F 36.4 °F 39.2 °F 93% 30.00 in 7.0 mi NE 6.9 mph - N/A Rain Light Rain
4:35 AM 41.0 °F 37.1 °F 39.2 °F 93% 30.01 in 7.0 mi NNE 5.8 mph - N/A Rain Light Rain
4:55 AM 41.0 °F 36.4 °F 39.2 °F 93% 30.00 in 10.0 mi ENE 6.9 mph - N/A Rain Rain
5:15 AM 41.0 °F 36.4 °F 39.2 °F 93% 29.99 in 10.0 mi ENE 6.9 mph - N/A Rain Light Rain
5:35 AM 41.0 °F 37.1 °F 39.2 °F 93% 29.99 in 10.0 mi East 5.8 mph - N/A   Light Drizzle
5:55 AM 41.0 °F 34.7 °F 37.4 °F 87% 29.97 in 10.0 mi East 10.4 mph - N/A   Light Drizzle
6:15 AM 41.0 °F 33.5 °F 37.4 °F 87% 29.94 in 10.0 mi East 13.8 mph 19.6 mph N/A   Mostly Cloudy
6:35 AM 41.0 °F 34.3 °F 39.2 °F 93% 29.95 in 10.0 mi East 11.5 mph 18.4 mph N/A   Mostly Cloudy
6:55 AM 41.0 °F 33.5 °F 39.2 °F 93% 29.94 in 10.0 mi East 13.8 mph 18.4 mph N/A   Overcast
7:15 AM 41.0 °F 33.5 °F 39.2 °F 93% 29.92 in 10.0 mi East 13.8 mph 17.3 mph N/A   Overcast
7:35 AM 42.8 °F 35.1 °F 39.2 °F 87% 29.94 in 10.0 mi ESE 16.1 mph 19.6 mph N/A   Overcast
7:55 AM 42.8 °F 35.8 °F 39.2 °F 87% 29.96 in 10.0 mi East 13.8 mph 24.2 mph N/A   Overcast
8:15 AM 42.8 °F 37.0 °F 39.2 °F 87% 29.97 in 10.0 mi ENE 10.4 mph 19.6 mph N/A   Overcast
8:35 AM 42.8 °F 34.3 °F 39.2 °F 87% 29.92 in 10.0 mi East 19.6 mph 29.9 mph N/A   Overcast
8:55 AM 42.8 °F 36.6 °F 39.2 °F 87% 29.95 in 10.0 mi East 11.5 mph 23.0 mph N/A   Overcast
9:15 AM 42.8 °F 35.8 °F 39.2 °F 87% 29.94 in 10.0 mi ENE 13.8 mph 20.7 mph N/A   Overcast
9:35 AM 44.6 °F 40.2 °F 39.2 °F 81% 29.95 in 10.0 mi East 8.1 mph 19.6 mph N/A   Overcast
9:55 AM 42.8 °F 39.3 °F 39.2 °F 87% 29.95 in 10.0 mi ENE 5.8 mph 20.7 mph N/A   Overcast
10:15 AM 44.6 °F 38.8 °F 37.4 °F 76% 29.97 in 10.0 mi ENE 11.5 mph 16.1 mph N/A   Overcast
10:35 AM 44.6 °F 39.2 °F 37.4 °F 76% 29.97 in 10.0 mi NE 10.4 mph 25.3 mph N/A   Overcast
10:55 AM 44.6 °F - 39.2 °F 81% 29.96 in 10.0 mi North - - N/A   Overcast
11:15 AM 44.6 °F 39.2 °F 37.4 °F 76% 29.97 in 10.0 mi ENE 10.4 mph 21.9 mph N/A   Overcast
11:35 AM 44.6 °F 39.7 °F 37.4 °F 76% 29.97 in 10.0 mi ENE 9.2 mph - N/A   Overcast
11:55 AM 44.6 °F 39.7 °F 37.4 °F 76% 29.99 in 10.0 mi East 9.2 mph 20.7 mph N/A   Overcast
12:15 PM 44.6 °F 38.1 °F 37.4 °F 76% 29.97 in 10.0 mi East 13.8 mph 23.0 mph N/A   Overcast
12:35 PM 44.6 °F 38.8 °F 37.4 °F 76% 29.96 in 10.0 mi East 11.5 mph 24.2 mph N/A   Overcast
12:55 PM 46.4 °F 41.5 °F 37.4 °F 71% 29.96 in 10.0 mi ENE 10.4 mph 19.6 mph N/A   Overcast
1:15 PM 46.4 °F 40.7 °F 35.6 °F 66% 29.96 in 10.0 mi ENE 12.7 mph 21.9 mph N/A   Overcast
1:35 PM 46.4 °F 40.7 °F 35.6 °F 66% 29.97 in 10.0 mi East 12.7 mph 19.6 mph N/A   Overcast
1:55 PM 46.4 °F 41.5 °F 35.6 °F 66% 29.96 in 10.0 mi East 10.4 mph 24.2 mph N/A   Overcast
2:15 PM 44.6 °F 38.1 °F 35.6 °F 71% 29.97 in 10.0 mi East 13.8 mph 20.7 mph N/A   Light Drizzle
2:35 PM 44.6 °F 37.8 °F 35.6 °F 71% 29.97 in 10.0 mi East 15.0 mph 24.2 mph N/A   Light Drizzle
2:55 PM 44.6 °F 39.2 °F 37.4 °F 76% 29.97 in 10.0 mi ENE 10.4 mph 17.3 mph N/A Rain Light Rain
3:15 PM 42.8 °F 36.2 °F 37.4 °F 81% 29.97 in 10.0 mi ENE 12.7 mph - N/A Rain Light Rain
3:35 PM 42.8 °F 37.0 °F 37.4 °F 81% 29.97 in 10.0 mi ENE 10.4 mph 18.4 mph N/A Rain Light Rain
3:55 PM 42.8 °F 37.5 °F 39.2 °F 87% 29.98 in 10.0 mi ENE 9.2 mph - N/A Rain Light Rain
4:15 PM 42.8 °F 37.0 °F 39.2 °F 87% 29.99 in 7.0 mi ENE 10.4 mph 19.6 mph N/A Rain Light Rain
4:35 PM 42.8 °F 38.6 °F 41.0 °F 93% 30.00 in 4.0 mi ENE 6.9 mph - N/A Rain Rain
4:55 PM 41.0 °F 34.7 °F 39.2 °F 93% 30.01 in 5.0 mi ENE 10.4 mph 20.7 mph N/A Rain Rain
5:15 PM 41.0 °F 33.5 °F 37.4 °F 87% 30.01 in 7.0 mi ENE 13.8 mph 21.9 mph N/A Rain Light Rain
5:35 PM 41.0 °F 33.5 °F 37.4 °F 87% 30.01 in 7.0 mi ENE 13.8 mph 21.9 mph N/A Rain Light Rain
5:55 PM 41.0 °F 34.3 °F 37.4 °F 87% 30.01 in 7.0 mi ENE 11.5 mph 20.7 mph N/A Rain Light Rain
6:15 PM 41.0 °F 34.3 °F 37.4 °F 87% 30.02 in 7.0 mi NE 11.5 mph 20.7 mph N/A Rain Light Rain
6:35 PM 39.2 °F 31.6 °F 37.4 °F 93% 30.03 in 7.0 mi ENE 12.7 mph 21.9 mph N/A Rain Light Rain
6:55 PM 39.2 °F 32.0 °F 35.6 °F 87% 30.03 in 7.0 mi ENE 11.5 mph 20.7 mph N/A Rain Rain
7:15 PM 39.2 °F 32.0 °F 35.6 °F 87% 30.03 in 7.0 mi NE 11.5 mph 19.6 mph N/A Rain Light Rain
7:35 PM 37.4 °F 28.2 °F 35.6 °F 93% 30.03 in 5.0 mi NE 16.1 mph 23.0 mph N/A Rain Rain
7:55 PM 37.4 °F 29.3 °F 35.6 °F 93% 30.04 in 5.0 mi NE 12.7 mph 24.2 mph N/A Rain Light Rain
8:15 PM 37.4 °F 29.3 °F 35.6 °F 93% 30.04 in 4.0 mi NE 12.7 mph 24.2 mph N/A Rain Light Rain
8:35 PM 35.6 °F 25.9 °F 35.6 °F 100% 30.05 in 3.0 mi ENE 16.1 mph 24.2 mph N/A Rain Rain
8:55 PM 35.6 °F 27.5 °F 33.8 °F 93% 30.05 in 4.0 mi NE 11.5 mph 21.9 mph N/A Rain Rain
9:15 PM 33.8 °F 25.3 °F 32.0 °F 93% 30.08 in 1.2 mi ENE 11.5 mph 19.6 mph N/A Snow Light Snow
9:35 PM 33.8 °F 25.8 °F 32.0 °F 93% 30.07 in 0.8 mi NE 10.4 mph 19.6 mph N/A Snow Light Snow
10:35 PM 33.8 °F 25.8 °F 32.0 °F 93% 30.12 in 0.5 mi NE 10.4 mph 17.3 mph N/A Snow Snow
10:55 PM 33.8 °F 25.8 °F 32.0 °F 93% 30.12 in 0.5 mi NNE 10.4 mph - N/A Snow Light Snow
11:15 PM 33.8 °F 27.7 °F 32.0 °F 93% 30.12 in 0.5 mi NNE 6.9 mph - N/A Snow Light Snow
11:35 PM 33.8 °F 25.8 °F 32.0 °F 93% 30.12 in 0.5 mi NNE 10.4 mph 16.1 mph N/A Snow Snow
11:55 PM 33.8 °F 25.8 °F 32.0 °F 93% 30.12 in 0.5 mi NE 10.4 mph - N/A Snow Snow